EW8215 Weather Reports


Display with metric or nautical units.
time (UTC)temp
F
wind
direction
speed
MPH
gust
MPH
rain 1hr
in
rain 24hr
in
rain mn
in
humidity
%
barometer
mb
20260502200808 75 251 2.0 3.0 0.00 0.00 0.00 51 1021.4
20260502200304 74 129 2.0 2.0 0.00 0.00 0.00 54 1021.3
20260502195803 75 122 4.0 5.0 0.00 0.00 0.00 53 1021.5
20260502195259 75 110 4.0 5.0 0.00 0.00 0.00 46 1021.6
20260502194755 74 150 3.0 5.0 0.00 0.00 0.00 47 1021.4
20260502194253 74 130 3.0 5.0 0.00 0.00 0.00 52 1021.5
20260502193748 74 50 0.0 2.0 0.00 0.00 0.00 49 1021.6
20260502193246 75 37 7.0 9.0 0.00 0.00 0.00 52 1021.5
20260502192746 73 43 6.0 9.0 0.00 0.00 0.00 48 1021.6
20260502192238 73 112 2.0 3.0 0.00 0.00 0.00 52 1021.6
20260502191735 74 53 3.0 3.0 0.00 0.00 0.00 51 1021.6
20260502191233 73 137 1.0 2.0 0.00 0.00 0.00 49 1021.6
20260502190730 73 97 2.0 3.0 0.00 0.00 0.00 52 1021.6
20260502190227 73 130 6.0 9.0 0.00 0.00 0.00 52 1021.7
20260502185727 73 130 2.0 3.0 0.00 0.00 0.00 55 1021.5
20260502185224 73 135 3.0 5.0 0.00 0.00 0.00 52 1021.8
20260502184720 73 89 4.0 5.0 0.00 0.00 0.00 52 1021.9
20260502184216 73 127 1.0 2.0 0.00 0.00 0.00 49 1021.8
20260502183713 73 80 4.0 7.0 0.00 0.00 0.00 51 1021.9
20260502183209 72 339 4.0 7.0 0.00 0.00 0.00 56 1022.0
20260502182704 72 60 5.0 5.0 0.00 0.00 0.00 51 1022.1
20260502182200 72 197 3.0 5.0 0.00 0.00 0.00 57 1022.2
20260502181657 72 14 5.0 5.0 0.00 0.00 0.00 50 1022.4
20260502181156 71 71 2.0 3.0 0.00 0.00 0.00 53 1022.5
20260502180653 71 283 4.0 9.0 0.00 0.00 0.00 55 1022.4
20260502180150 71 34 4.0 7.0 0.00 0.00 0.00 59 1022.7
20260502170114 69 359 7.0 9.0 0.00 0.00 0.00 60 1023.2
20260502164100 69 281 4.0 7.0 0.00 0.00 0.00 57 1023.3
20260502163556 68 357 5.0 7.0 0.00 0.00 0.00 59 1023.6
20260502163053 68 11 8.0 10.0 0.00 0.00 0.00 60 1023.4
20260502162550 68 1 4.0 5.0 0.00 0.00 0.00 59 1023.4
20260502162047 68 179 2.0 3.0 0.00 0.00 0.00 59 1023.4
20260502161543 68 348 4.0 5.0 0.00 0.00 0.00 59 1023.3
20260502161041 67 47 4.0 5.0 0.00 0.00 0.00 61 1023.6
20260502160539 67 109 4.0 5.0 0.00 0.00 0.00 61 1023.5
20260502151947 65 31 5.0 9.0 0.00 0.00 0.00 69 1023.6
20260502151444 64 86 3.0 3.0 0.00 0.00 0.00 71 1023.5
20260502150941 64 151 3.0 3.0 0.00 0.00 0.00 73 1023.3
20260502150438 63 327 3.0 5.0 0.00 0.00 0.00 73 1023.4
20260502130323 51 323 4.0 5.0 0.00 0.00 0.00 99 1022.4
20260502123809 49 159 0.0 0.0 0.00 0.00 0.00 99 1022.1
20260502123306 49 157 1.0 2.0 0.00 0.00 0.00 99 1021.8
20260502122803 48 126 2.0 3.0 0.00 0.00 0.00 99 1021.5
20260502122259 48 163 0.0 0.0 0.00 0.00 0.00 99 1021.5
20260502121757 48 162 0.0 0.0 0.00 0.00 0.00 99 1021.5
20260502121254 48 163 0.0 0.0 0.00 0.00 0.00 99 1021.5
20260502120751 48 163 0.0 0.0 0.00 0.00 0.00 99 1021.4
20260502120248 48 157 0.0 0.0 0.00 0.00 0.00 99 1021.2
20260502115746 48 156 0.0 0.0 0.00 0.00 0.00 98 1021.0
20260502115242 48 156 0.0 0.0 0.00 0.00 0.00 98 1021.0
20260502114738 48 160 0.0 0.0 0.00 0.00 0.00 98 1020.9
20260502114235 48 161 0.0 0.0 0.00 0.00 0.00 98 1020.9
20260502113732 48 163 0.0 0.0 0.00 0.00 0.00 98 1021.1
20260502113230 48 162 0.0 0.0 0.00 0.00 0.00 98 1020.8
20260502112728 48 162 0.0 0.0 0.00 0.00 0.00 98 1020.7
20260502112226 48 161 0.0 0.0 0.00 0.00 0.00 98 1020.6
20260502111722 48 159 0.0 0.0 0.00 0.00 0.00 98 1020.6
20260502111220 48 157 0.0 0.0 0.00 0.00 0.00 98 1020.5
20260502110717 48 183 2.0 3.0 0.00 0.00 0.00 98 1020.4
20260502110215 48 157 0.0 0.0 0.00 0.00 0.00 98 1020.2
20260502105713 48 157 0.0 0.0 0.00 0.00 0.00 98 1020.1
20260502105209 48 157 0.0 0.0 0.00 0.00 0.00 98 1020.1
20260502104707 48 157 0.0 0.0 0.00 0.00 0.00 97 1020.0
20260502104204 48 157 0.0 0.0 0.00 0.00 0.00 97 1019.8
20260502103701 48 157 0.0 0.0 0.00 0.00 0.00 97 1019.9
20260502103159 48 157 0.0 0.0 0.00 0.00 0.00 97 1019.8
20260502102655 48 157 0.0 0.0 0.00 0.00 0.00 97 1019.8
20260502102152 48 157 0.0 0.0 0.00 0.00 0.00 97 1019.8
20260502101650 48 157 0.0 0.0 0.00 0.00 0.00 96 1019.7
20260502101148 48 157 0.0 0.0 0.00 0.00 0.00 96 1019.7
20260502100646 49 157 0.0 0.0 0.00 0.00 0.00 96 1019.8
20260502100144 49 161 0.0 0.0 0.00 0.00 0.00 95 1020.0
20260502091119 51 105 3.0 3.0 0.00 0.00 0.00 94 1019.7
20260502090615 51 273 2.0 3.0 0.00 0.00 0.00 94 1019.7
20260502090113 51 135 2.0 3.0 0.00 0.00 0.00 94 1019.5
20260502071510 51 155 1.0 2.0 0.00 0.00 0.00 95 1019.1
20260502071008 51 163 2.0 3.0 0.00 0.00 0.00 95 1019.4
20260502070506 52 92 3.0 3.0 0.00 0.00 0.00 95 1019.4
20260502070004 52 53 3.0 3.0 0.00 0.00 0.00 96 1019.3
20260502065502 52 131 0.0 0.0 0.00 0.00 0.00 96 1019.3
20260502065000 51 139 0.0 0.0 0.00 0.00 0.00 95 1019.0
20260502064458 52 150 0.0 0.0 0.00 0.00 0.00 95 1019.2
20260502063954 52 152 0.0 0.0 0.00 0.00 0.00 95 1019.1
20260502063452 52 153 0.0 0.0 0.00 0.00 0.00 95 1019.2
20260502062950 52 153 0.0 0.0 0.00 0.00 0.00 94 1019.2
20260502062447 53 150 0.0 0.0 0.00 0.00 0.00 94 1019.1
20260502061945 52 137 1.0 2.0 0.00 0.00 0.00 94 1019.1
20260502061443 52 154 0.0 0.0 0.00 0.00 0.00 94 1019.0
20260502060938 53 155 0.0 0.0 0.00 0.00 0.00 93 1019.2
20260502060434 53 157 0.0 0.0 0.00 0.00 0.00 92 1019.2
20260502055931 53 146 2.0 2.0 0.00 0.00 0.00 92 1019.5
20260502055429 54 142 0.0 0.0 0.00 0.00 0.00 92 1019.5
20260502054928 54 108 2.0 2.0 0.00 0.00 0.00 92 1019.5
20260502054426 54 146 1.0 2.0 0.00 0.00 0.00 91 1019.3
20260502053923 54 147 2.0 2.0 0.00 0.00 0.00 91 1019.4
20260502053420 55 159 0.0 0.0 0.00 0.00 0.00 90 1019.2
20260502052918 55 105 2.0 2.0 0.00 0.00 0.00 90 1019.4
20260502052416 55 63 3.0 7.0 0.00 0.00 0.00 89 1019.1
20260502051913 55 122 2.0 3.0 0.00 0.00 0.00 90 1019.1
20260502051412 55 65 1.0 3.0 0.00 0.00 0.00 91 1019.2
20260502050908 55 125 0.0 0.0 0.00 0.00 0.00 90 1019.1
20260502050404 55 130 2.0 2.0 0.00 0.00 0.00 90 1019.1
20260502045902 55 219 2.0 3.0 0.00 1.41 1.41 90 1019.1
20260502045358 55 115 4.0 5.0 0.00 1.41 1.41 91 1019.0
20260502044855 55 125 0.0 2.0 0.00 1.41 1.41 92 1018.9
20260502044351 55 158 1.0 2.0 0.00 1.41 1.41 93 1019.1
20260502043848 55 150 1.0 2.0 0.00 1.41 1.41 93 1019.1
20260502043346 55 150 0.0 2.0 0.00 1.41 1.41 93 1018.9
20260502042845 55 150 1.0 2.0 0.00 1.41 1.41 94 1018.6
20260502042343 55 134 2.0 2.0 0.00 1.41 1.41 95 1019.0
20260502041840 55 140 1.0 2.0 0.00 1.41 1.41 95 1018.9
20260502041337 55 152 0.0 0.0 0.00 1.41 1.41 95 1018.9
20260502040835 55 115 2.0 3.0 0.00 1.41 1.41 95 1018.9
20260502040332 55 137 2.0 3.0 0.00 1.41 1.41 95 1018.6
20260502035827 55 154 4.0 5.0 0.00 1.41 1.41 95 1018.7
20260502035324 55 108 3.0 5.0 0.00 1.41 1.41 95 1018.9
20260502034822 55 95 2.0 3.0 0.00 1.41 1.41 95 1018.7
20260502034320 55 141 1.0 2.0 0.00 1.41 1.41 95 1019.0
20260502033818 55 122 2.0 2.0 0.00 1.41 1.41 95 1018.7
20260502033315 55 151 2.0 2.0 0.00 1.41 1.41 94 1019.0
20260502032812 55 45 4.0 7.0 0.00 1.41 1.41 94 1019.1
20260502032308 55 314 0.0 0.0 0.00 1.41 1.41 95 1018.9
20260502031806 55 155 0.0 0.0 0.00 1.41 1.41 95 1019.0
20260502031304 55 143 2.0 2.0 0.00 1.41 1.41 95 1018.7
20260502030802 55 144 2.0 2.0 0.00 1.41 1.41 95 1018.6
20260502030300 55 133 0.0 0.0 0.00 1.41 1.41 95 1018.6
20260502025757 55 134 0.0 0.0 0.00 1.41 1.41 94 1018.5
20260502025255 55 147 0.0 2.0 0.00 1.41 1.41 94 1018.5
20260502024752 55 149 0.0 0.0 0.00 1.41 1.41 94 1018.5
20260502024250 55 135 1.0 2.0 0.00 1.41 1.41 93 1018.3
20260502023748 55 137 0.0 0.0 0.00 1.41 1.41 93 1018.2
20260502023245 55 130 0.0 0.0 0.00 1.41 1.41 93 1018.2
20260502022743 55 127 2.0 2.0 0.00 1.41 1.41 92 1018.0
20260502022239 55 89 3.0 5.0 0.00 1.41 1.41 92 1018.1
20260502021736 55 69 5.0 7.0 0.00 1.41 1.41 92 1017.9
20260502021233 55 143 0.0 2.0 0.00 1.41 1.41 92 1018.0
20260502020730 55 87 2.0 3.0 0.00 1.41 1.41 93 1017.8
20260502020227 55 67 4.0 5.0 0.00 1.41 1.41 92 1017.7
20260502015726 55 165 2.0 3.0 0.00 1.41 1.41 92 1017.7
20260502015221 55 145 2.0 3.0 0.00 1.41 1.41 92 1017.5
20260502014719 55 124 2.0 3.0 0.00 1.41 1.41 92 1017.3
20260502014216 55 58 3.0 3.0 0.00 1.41 1.41 93 1017.2
20260502013712 55 36 4.0 7.0 0.00 1.41 1.41 93 1017.3
20260502013207 55 73 2.0 5.0 0.00 1.41 1.41 93 1017.2
20260502012705 55 92 3.0 5.0 0.00 1.41 1.41 93 1017.0
20260502012203 55 97 4.0 5.0 0.00 1.41 1.41 94 1016.9
20260502011659 55 139 3.0 5.0 0.00 1.41 1.41 95 1016.9
20260502011155 55 117 1.0 2.0 0.00 1.41 1.41 95 1016.8
20260502010653 55 142 2.0 3.0 0.00 1.41 1.41 95 1016.8
20260502010149 55 146 0.0 2.0 0.05 1.41 1.41 95 1017.0
20260502005646 55 135 2.0 2.0 0.05 1.41 1.41 95 1016.7
20260502005144 55 145 2.0 3.0 0.00 1.40 1.40 95 1016.6
20260502004640 55 132 3.0 5.0 0.00 1.40 1.40 94 1016.6
20260502004137 55 84 4.0 5.0 0.00 1.40 1.40 94 1016.2
20260502003635 55 110 2.0 5.0 0.00 1.40 1.40 94 1016.6
20260502003132 55 101 4.0 5.0 0.00 1.40 1.40 93 1016.4
20260502002627 55 54 4.0 7.0 0.00 1.40 1.40 93 1016.4
20260502002125 55 100 3.0 5.0 0.00 1.40 1.40 93 1016.5
20260502001623 55 354 10.0 14.0 0.00 1.40 1.40 92 1016.4
20260502001120 55 97 3.0 3.0 0.00 1.40 1.40 92 1016.2
20260502000618 55 72 7.0 10.0 0.00 1.40 1.40 94 1016.0
20260502000115 55 134 4.0 7.0 0.00 1.40 1.40 96 1016.2
20260501235611 55 61 4.0 7.0 0.00 1.40 1.40 96 1016.0
20260501235107 55 130 4.0 5.0 0.00 1.40 1.40 96 1015.9
20260501234602 55 104 3.0 3.0 0.00 1.40 1.40 97 1015.8
20260501234100 55 24 9.0 12.0 0.00 1.40 1.40 97 1015.5
20260501233558 54 59 6.0 9.0 0.00 1.40 1.40 98 1015.7
20260501233055 55 71 4.0 5.0 0.07 1.40 1.40 98 1015.8
20260501232551 55 347 5.0 10.0 0.07 1.40 1.40 99 1015.6
20260501232049 55 204 2.0 3.0 0.05 1.39 1.39 99 1015.5
20260501231546 55 116 5.0 7.0 0.12 1.39 1.39 99 1015.7
20260501231044 55 97 5.0 7.0 0.12 1.38 1.38 99 1015.8
20260501230543 55 349 6.0 10.0 0.12 1.37 1.37 99 1015.9
20260501230041 55 163 2.0 2.0 0.19 1.36 1.36 99 1015.9
20260501225538 55 95 4.0 5.0 0.19 1.35 1.35 99 1016.0
20260501225034 55 57 6.0 7.0 0.19 1.34 1.34 99 1016.1
20260501224532 55 49 4.0 7.0 0.12 1.32 1.32 99 1015.9
20260501224028 55 320 9.0 10.0 0.24 1.31 1.31 99 1015.9
20260501223525 55 94 3.0 5.0 0.17 1.30 1.30 99 1016.2
20260501223021 55 331 4.0 7.0 0.07 1.27 1.27 99 1016.2
20260501222517 55 28 6.0 7.0 0.19 1.27 1.27 99 1015.8
20260501222014 55 305 12.0 17.0 0.17 1.26 1.26 99 1015.8
20260501221511 55 286 4.0 5.0 0.19 1.25 1.25 99 1015.4
20260501221009 55 1 11.0 19.0 0.07 1.23 1.23 99 1015.2
20260501220506 55 132 4.0 5.0 0.00 1.22 1.22 99 1015.0
20260501220003 55 124 3.0 3.0 0.00 1.22 1.22 99 1014.8
20260501215459 54 63 3.0 5.0 0.00 1.22 1.22 99 1014.8
20260501214954 55 71 9.0 14.0 0.00 1.22 1.22 99 1014.6
20260501214450 55 76 5.0 9.0 0.00 1.22 1.22 99 1014.7
20260501213945 55 66 5.0 7.0 0.00 1.22 1.22 99 1014.5
20260501213443 55 55 4.0 5.0 0.00 1.22 1.22 99 1014.3
20260501212938 55 321 10.0 12.0 0.00 1.22 1.22 99 1014.0
20260501212435 56 34 6.0 9.0 0.00 1.22 1.22 99 1013.5
20260501211932 55 125 7.0 10.0 0.00 1.22 1.22 99 1013.5
20260501211430 56 38 3.0 5.0 0.00 1.22 1.22 99 1013.7
20260501210927 56 43 9.0 12.0 0.00 1.22 1.22 99 1013.3
20260501210423 56 47 9.0 17.0 0.00 1.22 1.22 99 1013.2
20260501205920 56 37 7.0 10.0 0.00 1.22 1.22 99 1013.1
20260501205417 56 150 6.0 7.0 0.00 1.22 1.22 99 1013.0
20260501204909 57 52 6.0 9.0 0.05 1.22 1.22 99 1013.4
20260501204404 57 73 3.0 5.0 0.05 1.22 1.22 99 1013.1
20260501203900 57 79 8.0 10.0 0.07 1.21 1.21 99 1012.6
20260501203357 57 89 10.0 14.0 0.07 1.21 1.21 99 1013.1
20260501202854 56 73 7.0 9.0 0.07 1.20 1.20 99 1012.9
20260501202352 56 86 10.0 15.0 0.07 1.20 1.20 99 1013.3
20260501201848 56 73 9.0 15.0 0.05 1.19 1.19 99 1013.8
20260501201345 56 111 5.0 5.0 0.12 1.19 1.19 99 1013.8